When you browse on this site, cookies collect data to enhance your experience and personalize the content and advertising you see.
Visit our Privacy Policy to learn more. By continuing to use the site, you agree to this use of cookies and data.
  • în România
  • Lista ţărilor
  • Pe 7 zile
  • Temperatura apei
  • Meteo pe hartă
  • Widget-uri
  • user-avatar
    Intrare

    Meteo pe oră la Middlesbrough

    Astăzi, 2 Iunie, Marţi

    Timp Temperatura Precipitaţii Vânt Presiune Umiditate
    00:00 +9°C° 0 mm 0 m/s 767 mmHg 81%
    01:00 +10°C° 0 mm 1 m/s 767 mmHg 80%
    02:00 +10°C° 0 mm 1 m/s 767 mmHg 80%
    03:00 +10°C° 0 mm 1 m/s 766 mmHg 79%
    04:00 +11°C° 0 mm 1 m/s 766 mmHg 76%
    05:00 +12°C° 0 mm 1 m/s 766 mmHg 73%
    06:00 +13°C° 0 mm 1 m/s 765 mmHg 70%
    07:00 +15°C° 0 mm 1 m/s 765 mmHg 65%
    08:00 +16°C° 0 mm 1 m/s 765 mmHg 60%
    09:00 +17°C° 0 mm 0 m/s 765 mmHg 55%
    10:00 +20°C° 0 mm 1 m/s 764 mmHg 52%
    11:00 +21°C° 0 mm 1 m/s 764 mmHg 49%
    12:00 +22°C° 0 mm 1 m/s 764 mmHg 46%
    13:00 +22°C° 0 mm 1 m/s 763 mmHg 48%
    14:00 +21°C° 0 mm 2 m/s 762 mmHg 49%
    15:00 +21°C° 0 mm 2 m/s 762 mmHg 51%
    16:00 +20°C° 0.2 mm 2 m/s 761 mmHg 58%
    17:00 +19°C° 0.2 mm 2 m/s 761 mmHg 65%
    18:00 +18°C° 0.2 mm 2 m/s 761 mmHg 73%
    19:00 +17°C° 0.1 mm 2 m/s 760 mmHg 75%
    20:00 +16°C° 0.1 mm 2 m/s 760 mmHg 77%
    21:00 +14°C° 0.1 mm 2 m/s 760 mmHg 80%
    22:00 +14°C° 0.1 mm 2 m/s 759 mmHg 82%
    23:00 +12°C° 0.1 mm 3 m/s 759 mmHg 84%

    Mâine, 3 Iunie, Miercuri

    Timp Temperatura Precipitaţii Vânt Presiune Umiditate
    00:00 +12°C° 0.1 mm 3 m/s 758 mmHg 87%
    01:00 +12°C° 0.7 mm 3 m/s 758 mmHg 90%
    02:00 +11°C° 0.7 mm 4 m/s 758 mmHg 92%
    03:00 +11°C° 0.7 mm 4 m/s 757 mmHg 95%
    04:00 +11°C° 0.9 mm 4 m/s 757 mmHg 95%
    05:00 +11°C° 0.9 mm 4 m/s 757 mmHg 95%
    06:00 +10°C° 0.9 mm 5 m/s 757 mmHg 95%
    07:00 +10°C° 0.4 mm 6 m/s 757 mmHg 94%
    08:00 +10°C° 0.4 mm 7 m/s 757 mmHg 94%
    09:00 +10°C° 0.4 mm 8 m/s 757 mmHg 93%
    10:00 +10°C° 0.3 mm 8 m/s 757 mmHg 92%
    11:00 +10°C° 0.3 mm 8 m/s 757 mmHg 91%
    12:00 +11°C° 0.3 mm 8 m/s 757 mmHg 90%
    13:00 +11°C° 0.2 mm 8 m/s 757 mmHg 90%
    14:00 +11°C° 0.2 mm 8 m/s 757 mmHg 89%
    15:00 +11°C° 0.2 mm 8 m/s 757 mmHg 89%
    16:00 +11°C° 0.4 mm 8 m/s 757 mmHg 90%
    17:00 +10°C° 0.4 mm 8 m/s 757 mmHg 91%
    18:00 +10°C° 0.4 mm 8 m/s 757 mmHg 92%
    19:00 +9°C° 0.5 mm 8 m/s 757 mmHg 91%
    20:00 +9°C° 0.5 mm 8 m/s 757 mmHg 91%
    21:00 +9°C° 0.5 mm 8 m/s 757 mmHg 90%
    22:00 +8°C° 0 mm 7 m/s 757 mmHg 89%
    23:00 +6°C° 0 mm 7 m/s 757 mmHg 89%

    Poimâine, 4 Iunie, Joi

    Timp Temperatura Precipitaţii Vânt Presiune Umiditate
    00:00 +5°C° 0 mm 6 m/s 756 mmHg 88%
    01:00 +5°C° 0 mm 6 m/s 756 mmHg 88%
    02:00 +5°C° 0 mm 6 m/s 755 mmHg 88%
    03:00 +5°C° 0 mm 5 m/s 755 mmHg 88%
    04:00 +6°C° 0 mm 5 m/s 754 mmHg 87%
    05:00 +6°C° 0 mm 5 m/s 754 mmHg 85%
    06:00 +7°C° 0 mm 5 m/s 754 mmHg 83%
    07:00 +8°C° 0 mm 5 m/s 753 mmHg 76%
    08:00 +9°C° 0 mm 5 m/s 753 mmHg 69%
    09:00 +10°C° 0 mm 5 m/s 752 mmHg 63%
    10:00 +10°C° 0.1 mm 5 m/s 752 mmHg 63%
    11:00 +11°C° 0.1 mm 4 m/s 751 mmHg 64%
    12:00 +11°C° 0.1 mm 4 m/s 751 mmHg 65%
    13:00 +12°C° 0.2 mm 4 m/s 751 mmHg 67%
    14:00 +12°C° 0.2 mm 4 m/s 750 mmHg 68%
    15:00 +12°C° 0.2 mm 4 m/s 750 mmHg 70%
    16:00 +11°C° 0.4 mm 4 m/s 750 mmHg 75%
    17:00 +10°C° 0.4 mm 4 m/s 750 mmHg 79%
    18:00 +8°C° 0.4 mm 4 m/s 749 mmHg 84%
    19:00 +7°C° 0 mm 4 m/s 749 mmHg 85%
    20:00 +6°C° 0 mm 5 m/s 750 mmHg 86%
    21:00 +5°C° 0 mm 5 m/s 750 mmHg 87%
    22:00 +5°C° 0 mm 5 m/s 749 mmHg 88%
    23:00 +3°C° 0 mm 5 m/s 749 mmHg 89%

    5 Iunie, Vineri

    Timp Temperatura Precipitaţii Vânt Presiune Umiditate
    00:00 +3°C° 0 mm 6 m/s 749 mmHg 90%
    01:00 +3°C° 0 mm 6 m/s 749 mmHg 90%
    02:00 +2°C° 0 mm 6 m/s 749 mmHg 90%
    03:00 +2°C° 0 mm 7 m/s 748 mmHg 89%
    04:00 +3°C° 0 mm 7 m/s 748 mmHg 86%
    05:00 +4°C° 0 mm 7 m/s 748 mmHg 83%
    06:00 +5°C° 0 mm 7 m/s 748 mmHg 80%
    07:00 +6°C° 0 mm 7 m/s 747 mmHg 73%
    08:00 +8°C° 0 mm 7 m/s 747 mmHg 65%
    09:00 +10°C° 0 mm 7 m/s 747 mmHg 58%
    10:00 +10°C° 0 mm 7 m/s 747 mmHg 58%
    11:00 +10°C° 0 mm 7 m/s 747 mmHg 58%
    12:00 +11°C° 0 mm 7 m/s 747 mmHg 58%
    13:00 +11°C° 0.2 mm 7 m/s 746 mmHg 60%
    14:00 +11°C° 0.2 mm 6 m/s 746 mmHg 61%
    15:00 +13°C° 0.2 mm 6 m/s 746 mmHg 63%
    16:00 +12°C° 0.4 mm 5 m/s 746 mmHg 68%
    17:00 +12°C° 0.4 mm 5 m/s 746 mmHg 73%
    18:00 +11°C° 0.4 mm 4 m/s 746 mmHg 77%
    19:00 +10°C° 0.3 mm 4 m/s 746 mmHg 80%
    20:00 +8°C° 0.3 mm 5 m/s 746 mmHg 83%
    21:00 +7°C° 0.3 mm 5 m/s 746 mmHg 85%
    22:00 +6°C° 0 mm 5 m/s 746 mmHg 86%
    23:00 +4°C° 0 mm 6 m/s 746 mmHg 87%

    6 Iunie, Sâmbătă

    Timp Temperatura Precipitaţii Vânt Presiune Umiditate
    00:00 +3°C° 0 mm 6 m/s 746 mmHg 87%
    01:00 +3°C° 0 mm 7 m/s 746 mmHg 87%
    02:00 +2°C° 0 mm 7 m/s 746 mmHg 87%
    03:00 +1°C° 0 mm 8 m/s 746 mmHg 87%
    04:00 +1°C° 0.1 mm 8 m/s 745 mmHg 86%
    05:00 +2°C° 0.1 mm 9 m/s 745 mmHg 85%
    06:00 +3°C° 0.1 mm 10 m/s 745 mmHg 84%
    07:00 +5°C° 0.1 mm 10 m/s 745 mmHg 80%
    08:00 +6°C° 0.1 mm 10 m/s 745 mmHg 76%
    09:00 +7°C° 0.1 mm 10 m/s 746 mmHg 72%
    10:00 +7°C° 0 mm 10 m/s 746 mmHg 71%
    11:00 +8°C° 0 mm 10 m/s 746 mmHg 69%
    12:00 +9°C° 0 mm 10 m/s 747 mmHg 68%
    13:00 +10°C° 0.1 mm 9 m/s 747 mmHg 67%
    14:00 +11°C° 0.1 mm 9 m/s 747 mmHg 66%
    15:00 +11°C° 0.1 mm 8 m/s 747 mmHg 65%
    16:00 +11°C° 0 mm 9 m/s 748 mmHg 65%
    17:00 +10°C° 0 mm 9 m/s 748 mmHg 65%
    18:00 +10°C° 0 mm 9 m/s 748 mmHg 65%
    19:00 +8°C° 0 mm 9 m/s 748 mmHg 67%
    20:00 +7°C° 0 mm 8 m/s 748 mmHg 69%
    21:00 +6°C° 0 mm 8 m/s 749 mmHg 71%
    22:00 +5°C° 0 mm 8 m/s 749 mmHg 71%
    23:00 +5°C° 0 mm 8 m/s 748 mmHg 71%

    7 Iunie, Duminică

    Timp Temperatura Precipitaţii Vânt Presiune Umiditate
    00:00 +5°C° 0 mm 8 m/s 748 mmHg 71%
    01:00 +5°C° 0 mm 8 m/s 748 mmHg 72%
    02:00 +6°C° 0 mm 9 m/s 748 mmHg 74%
    03:00 +6°C° 0 mm 9 m/s 748 mmHg 75%
    04:00 +6°C° 0 mm 9 m/s 749 mmHg 74%
    05:00 +7°C° 0 mm 9 m/s 749 mmHg 72%
    06:00 +7°C° 0 mm 9 m/s 749 mmHg 71%
    07:00 +8°C° 0 mm 9 m/s 749 mmHg 69%
    08:00 +9°C° 0 mm 10 m/s 749 mmHg 67%
    09:00 +11°C° 0 mm 10 m/s 750 mmHg 65%
    10:00 +11°C° 0 mm 9 m/s 750 mmHg 64%
    11:00 +12°C° 0 mm 9 m/s 750 mmHg 63%
    12:00 +13°C° 0 mm 9 m/s 751 mmHg 62%
    13:00 +12°C° 0.1 mm 9 m/s 751 mmHg 63%
    14:00 +12°C° 0.1 mm 9 m/s 751 mmHg 65%
    15:00 +12°C° 0.1 mm 9 m/s 751 mmHg 66%
    16:00 +11°C° 0 mm 9 m/s 751 mmHg 66%
    17:00 +11°C° 0 mm 9 m/s 752 mmHg 65%
    18:00 +11°C° 0 mm 9 m/s 752 mmHg 65%
    19:00 +9°C° 0 mm 8 m/s 752 mmHg 67%
    20:00 +8°C° 0 mm 7 m/s 752 mmHg 70%
    21:00 +7°C° 0 mm 6 m/s 752 mmHg 72%
    22:00 +7°C° 0 mm 6 m/s 752 mmHg 74%
    23:00 +8°C° 0 mm 6 m/s 751 mmHg 76%
    Arată mai mult